Location: ???????
(55.3754°N, 39.3545°E)
Time: 06:17:17
(UTC+00:00)

NOSS 3-1 (A) - Pass Details

Date: 14 April 2026
Orbit: 613 x 1593 km, 63.4° (Epoch: 10 January)

Event Time Altitude Azimuth Distance (km) Brightness Sun altitude
Rises 19:04:21 0° 303° (WNW) 3,466 7.7 -18.9°
Reaches altitude 10° 19:06:39 10° 307° (NW) 2,648 6.9 -19.1°
Maximum altitude 19:12:53 61° 28° (NNE) 1,254 4.1 -19.6°
Enters shadow 19:18:50 18° 104° (ESE) 2,681 5.4 -20.0°
